South St. Paul, MN

10:06 AM CDT on March 29, 2017 (GMT -0500)
South Saint Paul Municipal-Fleming

Weather History for KSGS - January, 2013

Change the Weather History Date:

Thursday, January 24, 2013

  Actual Average (KSTP) Record (KSTP)
Temperature  
Mean Temperature 5 °F -  
Max Temperature 14 °F 22 °F 41 °F (2015)
Min Temperature -4 °F 7 °F -11 °F (2008)
Degree Days  
Heating Degree Days 60    
Moisture  
Dew Point -8 °F    
Average Humidity 58    
Maximum Humidity 63    
Minimum Humidity 53    
Precipitation  
Precipitation 0.00 in - - ()
Sea Level Pressure  
Sea Level Pressure 30.49 in    
Wind  
Wind Speed 6 mph (ESE)    
Max Wind Speed 12 mph    
Max Gust Speed 16 mph    
Visibility 10 miles    
Events Snow    
Averages and records for this station are not official NWS values.
T = Trace of Precipitation, MM = Missing Value Source: NWS Daily Summary

Daily Weather History Graph

Daily Weather History Graph

Search for Another Location

Airport or City:

Trip Planner

Search our weather history database for the weather conditions in past years. The results will help you decide how hot, cold, wet, or windy it might be!

Date:

Astronomy

Jan. 24, 2013 Rise Set
Actual Time 7:39 AM CST 5:09 PM CST
Civil Twilight 7:07 AM CST 5:41 PM CST
Nautical Twilight 6:32 AM CST 6:17 PM CST
Astronomical Twilight 5:57 AM CST 6:51 PM CST
Moon 3:10 PM CST (1/24) 5:39 AM CST (1/24)
Length of Visible Light 10h 33m
Length of Day
9h 30m
Waxing Gibbous, 94% of the Moon is Illuminated
Jan 24
Waxing Gibbous
Jan 26
Full
Feb 3
Last Quarter
Feb 10
New
Feb 17
First Quarter

Hourly Weather History & Observations

Time (CST) Temp. Windchill Dew Point Humidity Pressure Visibility Wind Dir Wind Speed Gust Speed Precip Events Conditions
12:12 AM -2.7 °F -17.5 °F -15.9 °F 54% 30.61 in 10.0 mi NNE 8.1 mph - N/A   Clear
12:32 AM -3.1 °F -19.1 °F -15.9 °F 54% 30.61 in 10.0 mi North 9.2 mph - N/A   Clear
12:52 AM -3.5 °F -17.1 °F -16.6 °F 53% 30.62 in 10.0 mi North 6.9 mph - N/A   Clear
1:12 AM -3.6 °F -20.7 °F -16.2 °F 55% 30.62 in 10.0 mi North 10.4 mph - N/A   Clear
1:32 AM -4.0 °F -17.8 °F -16.2 °F 56% 30.62 in 10.0 mi North 6.9 mph - N/A   Clear
1:52 AM -4.0 °F -19.0 °F -16.4 °F 55% 30.62 in 10.0 mi North 8.1 mph - N/A   Clear
2:12 AM -4.0 °F -17.8 °F -16.6 °F 55% 30.62 in 10.0 mi NNE 6.9 mph - N/A   Clear
2:32 AM -4.2 °F -14.8 °F -16.4 °F 56% 30.64 in 10.0 mi NNE 4.6 mph - N/A   Clear
2:52 AM -4.2 °F -14.8 °F -16.2 °F 56% 30.64 in 10.0 mi North 4.6 mph - N/A   Clear
3:12 AM -4.2 °F -14.8 °F -16.6 °F 55% 30.65 in 10.0 mi NNE 4.6 mph - N/A   Clear
3:32 AM -4.2 °F -14.8 °F -16.2 °F 56% 30.65 in 10.0 mi North 4.6 mph - N/A   Clear
3:52 AM -4.2 °F -12.6 °F -15.9 °F 57% 30.67 in 10.0 mi NNE 3.5 mph - N/A   Clear
4:12 AM -4.2 °F -12.6 °F -15.7 °F 58% 30.67 in 10.0 mi North 3.5 mph - N/A   Clear
4:32 AM -4.2 °F -14.8 °F -15.7 °F 58% 30.65 in 10.0 mi North 4.6 mph - N/A   Clear
4:52 AM -4.2 °F -12.6 °F -15.7 °F 58% 30.64 in 10.0 mi ENE 3.5 mph - N/A   Clear
5:12 AM -4.4 °F -12.8 °F -15.9 °F 58% 30.64 in 10.0 mi ENE 3.5 mph - N/A   Clear
5:32 AM -4.5 °F -15.2 °F -15.7 °F 59% 30.64 in 10.0 mi East 4.6 mph - N/A   Clear
5:52 AM -4.2 °F - -15.2 °F 59% 30.64 in 10.0 mi Calm Calm - N/A   Clear
6:12 AM -4.2 °F -12.6 °F -15.0 °F 60% 30.64 in 10.0 mi ENE 3.5 mph - N/A   Clear
6:32 AM -4.2 °F - -15.0 °F 60% 30.65 in 10.0 mi Calm Calm - N/A   Clear
6:52 AM -3.8 °F - -14.3 °F 61% 30.68 in 10.0 mi Calm Calm - N/A   Clear
7:12 AM -3.6 °F - -14.4 °F 60% 30.67 in 10.0 mi Calm Calm - N/A   Clear
7:32 AM -3.5 °F - -14.1 °F 60% 30.67 in 10.0 mi Calm Calm - N/A   Clear
7:52 AM -3.3 °F - -13.9 °F 60% 30.67 in 10.0 mi Calm Calm - N/A   Clear
8:12 AM -3.1 °F -11.4 °F -13.5 °F 61% 30.65 in 10.0 mi East 3.5 mph - N/A   Clear
8:32 AM -3.3 °F - -13.5 °F 62% 30.65 in 10.0 mi Calm Calm - N/A   Clear
8:52 AM -2.6 °F -10.8 °F -12.8 °F 62% 30.64 in 10.0 mi ESE 3.5 mph - N/A   Clear
9:12 AM -2.4 °F -10.6 °F -12.6 °F 62% 30.62 in 10.0 mi SE 3.5 mph - N/A   Clear
9:32 AM -2.2 °F -12.5 °F -12.3 °F 62% 30.62 in 10.0 mi SSE 4.6 mph - N/A   Clear
9:52 AM -1.8 °F -12.0 °F -11.7 °F 63% 30.62 in 10.0 mi ESE 4.6 mph - N/A   Clear
10:12 AM -1.1 °F -9.1 °F -11.2 °F 62% 30.63 in 10.0 mi SE 3.5 mph - N/A   Clear
10:32 AM -0.6 °F -12.2 °F -10.8 °F 62% 30.62 in 10.0 mi SE 5.8 mph - N/A   Clear
10:52 AM 0.1 °F -7.7 °F -10.3 °F 61% 30.62 in 10.0 mi SE 3.5 mph - N/A   Clear
11:12 AM 0.9 °F -6.9 °F -9.9 °F 61% 30.61 in 10.0 mi SSE 3.5 mph - N/A   Clear
11:32 AM 1.4 °F -6.2 °F -9.2 °F 61% 30.60 in 10.0 mi SE 3.5 mph - N/A   Clear
11:52 AM 2.3 °F -8.8 °F -8.3 °F 61% 30.59 in 10.0 mi SSE 5.8 mph - N/A   Clear
12:12 PM 3.2 °F -7.8 °F -7.8 °F 60% 30.57 in 10.0 mi SSE 5.8 mph - N/A   Clear
12:32 PM 3.9 °F -5.3 °F -7.1 °F 60% 30.57 in 10.0 mi South 4.6 mph - N/A   Clear
12:52 PM 4.5 °F -6.3 °F -6.7 °F 60% 30.55 in 10.0 mi East 5.8 mph - N/A   Clear
1:12 PM 5.0 °F -5.6 °F -6.7 °F 59% 30.52 in 10.0 mi SE 5.8 mph - N/A   Scattered Clouds
1:32 PM 5.9 °F -4.5 °F -6.0 °F 58% 30.52 in 10.0 mi SSE 5.8 mph - N/A   Clear
1:52 PM 6.6 °F -2.2 °F -5.4 °F 58% 30.51 in 10.0 mi SE 4.6 mph - N/A   Scattered Clouds
2:12 PM 7.3 °F -2.8 °F -4.9 °F 57% 30.50 in 10.0 mi ESE 5.8 mph - N/A   Scattered Clouds
2:32 PM 7.5 °F -1.1 °F -4.7 °F 57% 30.49 in 10.0 mi SE 4.6 mph - N/A   Scattered Clouds
2:52 PM 8.2 °F -3.0 °F -4.0 °F 58% 30.45 in 10.0 mi ESE 6.9 mph - N/A   Scattered Clouds
3:12 PM 8.6 °F -4.7 °F -4.2 °F 56% 30.44 in 10.0 mi SE 9.2 mph - N/A   Clear
3:32 PM 9.1 °F -1.9 °F -4.0 °F 55% 30.43 in 10.0 mi SE 6.9 mph - N/A   Scattered Clouds
3:52 PM 9.3 °F -0.5 °F -3.6 °F 56% 30.41 in 10.0 mi SSE 5.8 mph - N/A   Scattered Clouds
4:12 PM 9.5 °F -1.5 °F -3.5 °F 56% 30.40 in 10.0 mi ESE 6.9 mph - N/A   Mostly Cloudy
4:32 PM 9.7 °F 1.4 °F -3.5 °F 55% 30.39 in 10.0 mi SE 4.6 mph - N/A   Overcast
4:52 PM 10.0 °F 0.4 °F -3.5 °F 55% 30.38 in 10.0 mi SE 5.8 mph - N/A   Mostly Cloudy
5:12 PM 9.9 °F -1.1 °F -3.1 °F 56% 30.37 in 10.0 mi ESE 6.9 mph - N/A   Scattered Clouds
5:32 PM 10.0 °F 0.4 °F -2.6 °F 57% 30.37 in 10.0 mi SE 5.8 mph - N/A   Clear
5:52 PM 10.2 °F -1.7 °F -2.7 °F 56% 30.35 in 10.0 mi SE 8.1 mph - N/A   Clear
6:12 PM 10.0 °F -3.7 °F -2.6 °F 57% 30.34 in 10.0 mi SE 10.4 mph - N/A   Clear
6:32 PM 10.0 °F -3.7 °F -2.6 °F 57% 30.32 in 10.0 mi SE 10.4 mph - N/A   Clear
6:52 PM 10.0 °F -2.9 °F -2.4 °F 57% 30.32 in 10.0 mi SE 9.2 mph - N/A   Clear
7:12 PM 10.2 °F -1.7 °F -1.8 °F 58% 30.31 in 10.0 mi SSE 8.1 mph - N/A   Clear
7:32 PM 10.4 °F -1.5 °F -1.7 °F 58% 30.28 in 10.0 mi SE 8.1 mph - N/A   Scattered Clouds
7:52 PM 10.4 °F -4.1 °F -1.3 °F 59% 30.26 in 10.0 mi SE 11.5 mph 16.1 mph N/A   Scattered Clouds
8:12 PM 10.4 °F -3.3 °F -1.3 °F 59% 30.25 in 10.0 mi SE 10.4 mph - N/A   Scattered Clouds
8:32 PM 10.8 °F -2.8 °F -1.1 °F 59% 30.24 in 10.0 mi SSE 10.4 mph - N/A   Overcast
8:52 PM 10.9 °F -1.8 °F -0.8 °F 59% 30.24 in 10.0 mi SE 9.2 mph - N/A   Overcast
9:12 PM 11.3 °F -0.4 °F -0.6 °F 59% 30.24 in 10.0 mi SE 8.1 mph - N/A   Overcast
9:32 PM 11.5 °F 2.1 °F -0.0 °F 60% 30.22 in 10.0 mi SSE 5.8 mph - N/A   Overcast
9:52 PM 11.8 °F 3.9 °F 0.3 °F 60% 30.20 in 10.0 mi SE 4.6 mph - N/A   Overcast
10:12 PM 12.2 °F 2.9 °F 0.5 °F 60% 30.23 in 10.0 mi SE 5.8 mph - N/A   Overcast
10:32 PM 12.7 °F 2.4 °F 0.9 °F 59% 30.23 in 10.0 mi SSE 6.9 mph - N/A   Overcast
10:52 PM 13.1 °F 5.4 °F 1.4 °F 60% 30.22 in 10.0 mi SSE 4.6 mph - N/A   Overcast
11:12 PM 13.6 °F 7.7 °F 2.1 °F 60% 30.20 in 10.0 mi SSE 3.5 mph - N/A   Overcast
11:32 PM 14.4 °F 6.9 °F 2.1 °F 58% 30.19 in 10.0 mi SSE 4.6 mph - N/A   Overcast
11:52 PM 14.7 °F 4.8 °F 3.6 °F 61% 30.18 in 5.0 mi SSE 6.9 mph - N/A Snow Light Snow